Flag for United Kingdom Weather past 2 weeks in Middlesbrough, England, United Kingdom

Now
59 °F

Scattered clouds.


Feels Like: 54 °F
Forecast: 47 / 61 °F
Wind: 32 mph from Southwest

Location: Tees-Side

Current Time: Jun 2, 2015 at 6:37:26 PM

Latest Report: Jun 2, 2015 at 6:20 PM


Visibility: N/A

Pressure: 29.45 "Hg

Humidity: 55%

Dew point: 43 °F

Location of MiddlesbroughLocation

Historic Weather in Middlesbrough — Graph

°F

Middlesbrough temperature yesterday

Maximum temperature yesterday: 57 °F (at 1:50 PM)
Minimum temperature yesterday: 41 °F (at 5:50 AM)
Average temperature yesterday: 51 °F

Past Weeks' High & Low Weather Summary

 TemperatureHumidityPressure
High66 °F (May 22, 11:20 AM)94% (May 31, 5:50 AM)30.30 "Hg (May 31, 5:50 AM)
Low41 °F (May 21, 5:50 AM)30% (May 23, 7:50 PM)29.27 "Hg (Jun 1, 9:20 PM)
Average54 °F63%29.88 "Hg
* Reported May 18 5:20 PM — Jun 2 5:20 PM, Middlesbrough, Weather by CustomWeather, © 2015

Note: Actual official high and low records may vary slightly from our data, if they occured in-between our weather recording intervals... More about our weather records

Advertising

Middlesbrough weather history for previous 24 hours

 ConditionsComfort  
Time TempWeatherWind HumidityBarometerVisibility
5:20 PM
Tue, Jun 2
61 °FScattered clouds.32 mph48%29.42 "HgN/A
4:20 PM59 °FScattered clouds.31 mph55%29.42 "HgN/A
3:50 PM59 °FScattered clouds.29 mph59%29.39 "HgN/A
3:20 PM61 °FScattered clouds.29 mph59%29.36 "HgN/A
2:50 PM61 °FPartly sunny.28 mph59%29.36 "HgN/A
2:20 PM59 °FScattered clouds.25 mph63%29.36 "HgN/A
1:50 PM59 °FScattered clouds.26 mph63%29.33 "HgN/A
1:20 PM59 °FScattered clouds.25 mph63%29.33 "HgN/A
12:50 PM57 °FScattered clouds.25 mph63%29.33 "HgN/A
12:20 PM57 °FScattered clouds.29 mph59%29.33 "HgN/A
11:50 AM54 °FScattered clouds.18 mph67%29.33 "HgN/A
11:20 AM55 °FPassing clouds.23 mph59%29.33 "HgN/A
10:50 AM55 °FPassing clouds.22 mph59%29.33 "HgN/A
10:20 AM54 °FPassing clouds.25 mph58%29.33 "HgN/A
9:50 AM54 °FPassing clouds.31 mph54%29.30 "HgN/A
9:20 AM54 °FPassing clouds.31 mph54%29.30 "HgN/A
8:50 AM52 °FPassing clouds.32 mph54%29.30 "HgN/A
8:20 AM52 °FPassing clouds.25 mph54%29.30 "HgN/A
7:50 AM50 °FPassing clouds.21 mph58%29.30 "HgN/A
7:20 AM48 °FPassing clouds.18 mph62%29.30 "HgN/A
6:50 AM48 °FPassing clouds.13 mph62%29.30 "HgN/A
6:20 AM48 °FPassing clouds.8 mph66%29.30 "HgN/A
5:50 AM46 °FScattered clouds.9 mph66%29.30 "HgN/A
9:50 PM
Mon, Jun 1
48 °FLight rain. Broken clouds.29 mph87%29.27 "Hg4 mi
9:20 PM48 °FLight rain. Broken clouds.30 mph87%29.27 "Hg4 mi
8:50 PM48 °FLight rain. Broken clouds.29 mph87%29.33 "Hg5 mi
8:20 PM48 °FLight rain. Partly sunny.26 mph87%29.36 "Hg4 mi
7:50 PM48 °FPartly sunny.28 mph82%29.39 "HgN/A
7:20 PM50 °FScattered clouds.25 mph76%29.45 "HgN/A
6:50 PM50 °FScattered clouds.28 mph76%29.47 "HgN/A
6:20 PM52 °FLight rain. Scattered clouds.25 mph67%29.50 "HgN/A
Weather by CustomWeather, © 2015

See weather overviewHow to use our weather pages